AFR1344 LFPG-LFBO

Flight info

Callsign AFR1344
Flight time 0h 58m
Altitude 35000
Route ERIXU DCT ETAMO DCT GUERE DCT NARAK
Aircraft A321/M-SDE3FGHIRWY/LB1

Departure

Time 2026-05-08 19:11
Airport Charles de Gaulle International Airport (LFPG)

Arrival

Time 2026-05-08 20:10
Airport Toulouse-Blagnac Airport (LFBO)
Time Latitude Longitude Altitude Speed Heading
2026-05-08 18:20 49.00016 2.56427 361 ft 0 kts 176°
2026-05-08 18:27 49.00001 2.56244 363 ft 0 kts 176°
2026-05-08 19:00 49.00002 2.56244 354 ft 1 kts 176°
2026-05-08 19:00 49.00026 2.56241 357 ft 4 kts 176°
2026-05-08 19:01 49.00053 2.56238 361 ft 4 kts 180°
2026-05-08 19:01 49.00079 2.56244 364 ft 4 kts 208°
2026-05-08 19:01 49.00095 2.56268 358 ft 3 kts 262°
2026-05-08 19:01 49.00095 2.56273 357 ft 0 kts 265°
2026-05-08 19:04 49.00094 2.56263 360 ft 6 kts 264°
2026-05-08 19:04 49.00087 2.56145 362 ft 12 kts 264°
2026-05-08 19:04 49.00081 2.56027 354 ft 11 kts 266°
2026-05-08 19:04 49.00076 2.55919 357 ft 10 kts 266°
2026-05-08 19:05 49.00072 2.55828 354 ft 8 kts 269°
2026-05-08 19:05 49.00071 2.55746 354 ft 7 kts 269°
2026-05-08 19:05 49.00070 2.55729 354 ft 0 kts 269°
2026-05-08 19:08 49.00070 2.55700 354 ft 9 kts 266°
2026-05-08 19:08 49.00037 2.55589 357 ft 11 kts 236°
2026-05-08 19:08 48.99977 2.55535 357 ft 10 kts 176°
2026-05-08 19:08 48.99915 2.55571 361 ft 10 kts 152°
2026-05-08 19:09 48.99851 2.55669 356 ft 14 kts 119°
2026-05-08 19:09 48.99822 2.55810 354 ft 15 kts 103°
2026-05-08 19:09 48.99797 2.55969 362 ft 13 kts 102°
2026-05-08 19:09 48.99739 2.56027 357 ft 9 kts 174°
2026-05-08 19:10 48.99715 2.56032 354 ft 0 kts 174°
2026-05-08 19:10 48.99664 2.56039 359 ft 14 kts 170°
2026-05-08 19:10 48.99615 2.56105 357 ft 0 kts 83°
2026-05-08 19:10 48.99619 2.56163 356 ft 19 kts 86°
2026-05-08 19:11 48.99652 2.56781 355 ft 96 kts 85°
2026-05-08 19:11 48.99725 2.58110 370 ft 151 kts 81°
2026-05-08 19:11 48.99805 2.59711 971 ft 153 kts 84°
2026-05-08 19:11 48.99889 2.61336 1706 ft 154 kts 85°
2026-05-08 19:12 48.99977 2.62986 2337 ft 163 kts 84°
2026-05-08 19:12 49.00075 2.64826 2753 ft 185 kts 85°
2026-05-08 19:12 49.00184 2.66876 3082 ft 209 kts 85°
2026-05-08 19:12 49.00309 2.69251 3534 ft 235 kts 85°
2026-05-08 19:13 49.00444 2.71852 4147 ft 255 kts 85°
2026-05-08 19:13 49.00583 2.74550 5073 ft 262 kts 86°
2026-05-08 19:13 49.00716 2.77360 6005 ft 269 kts 89°
2026-05-08 19:13 49.00618 2.80242 6908 ft 276 kts 97°
2026-05-08 19:14 49.00319 2.83156 7811 ft 281 kts 106°
2026-05-08 19:14 48.99477 2.85846 8680 ft 285 kts 130°
2026-05-08 19:14 48.97978 2.87798 9580 ft 285 kts 156°
2026-05-08 19:14 48.96061 2.88611 10459 ft 284 kts 180°
2026-05-08 19:15 48.94136 2.88168 11163 ft 291 kts 202°
2026-05-08 19:15 48.92406 2.86429 11527 ft 310 kts 227°
2026-05-08 19:15 48.90916 2.83922 12210 ft 320 kts 229°
2026-05-08 19:15 48.89429 2.81435 12985 ft 325 kts 228°
2026-05-08 19:16 48.87884 2.78884 13763 ft 331 kts 228°
2026-05-08 19:16 48.86289 2.76271 14478 ft 335 kts 228°
2026-05-08 19:16 48.84691 2.73666 15208 ft 339 kts 228°
2026-05-08 19:16 48.83076 2.71038 15935 ft 342 kts 228°
2026-05-08 19:17 48.81274 2.68650 16641 ft 348 kts 213°
2026-05-08 19:17 48.79066 2.67099 17337 ft 353 kts 204°
2026-05-08 19:17 48.76769 2.65721 18051 ft 357 kts 203°
2026-05-08 19:17 48.74442 2.64355 18683 ft 360 kts 203°
2026-05-08 19:18 48.72885 2.63451 19049 ft 364 kts 203°
2026-05-08 19:18 48.70505 2.62072 19593 ft 369 kts 204°
2026-05-08 19:18 48.67300 2.60208 20304 ft 376 kts 203°
2026-05-08 19:18 48.64850 2.58772 20864 ft 381 kts 204°
2026-05-08 19:19 48.62363 2.57310 21398 ft 386 kts 204°
2026-05-08 19:19 48.59849 2.55830 21947 ft 390 kts 204°
2026-05-08 19:19 48.58131 2.54819 22312 ft 394 kts 204°
2026-05-08 19:19 48.55596 2.53330 22834 ft 399 kts 204°
2026-05-08 19:20 48.52995 2.51806 23361 ft 404 kts 204°
2026-05-08 19:20 48.51217 2.50765 23689 ft 407 kts 204°
2026-05-08 19:20 48.47695 2.48708 24303 ft 412 kts 204°
2026-05-08 19:20 48.45011 2.47146 24777 ft 415 kts 204°
2026-05-08 19:21 48.42312 2.45581 25251 ft 417 kts 204°
2026-05-08 19:21 48.39559 2.43986 25738 ft 419 kts 204°
2026-05-08 19:21 48.36834 2.42410 26209 ft 421 kts 204°
2026-05-08 19:21 48.34133 2.40847 26665 ft 423 kts 204°
2026-05-08 19:22 48.31385 2.39256 27110 ft 425 kts 204°
2026-05-08 19:22 48.28619 2.37652 27540 ft 427 kts 204°
2026-05-08 19:22 48.25841 2.36044 27968 ft 429 kts 204°
2026-05-08 19:22 48.23046 2.34430 28380 ft 432 kts 204°
2026-05-08 19:23 48.20233 2.32804 28791 ft 434 kts 204°
2026-05-08 19:23 48.17409 2.31175 29192 ft 436 kts 204°
2026-05-08 19:23 48.14573 2.29544 29600 ft 438 kts 204°
2026-05-08 19:23 48.11719 2.27914 29979 ft 440 kts 202°
2026-05-08 19:24 48.08749 2.26695 30304 ft 446 kts 193°
2026-05-08 19:24 48.05641 2.26195 30500 ft 454 kts 184°
2026-05-08 19:24 48.02456 2.26340 30623 ft 462 kts 180°
2026-05-08 19:24 47.99227 2.26560 30748 ft 467 kts 180°
2026-05-08 19:25 47.95969 2.26772 30876 ft 470 kts 180°
2026-05-08 19:25 47.92696 2.26978 31087 ft 471 kts 180°
2026-05-08 19:25 47.89422 2.27184 31343 ft 471 kts 180°
2026-05-08 19:25 47.86152 2.27388 31613 ft 470 kts 180°
2026-05-08 19:26 47.82888 2.27590 31894 ft 469 kts 180°
2026-05-08 19:26 47.79630 2.27792 32177 ft 468 kts 180°
2026-05-08 19:26 47.76385 2.27996 32463 ft 466 kts 180°
2026-05-08 19:26 47.73159 2.28201 32825 ft 462 kts 180°
2026-05-08 19:27 47.70946 2.28341 33058 ft 461 kts 180°
2026-05-08 19:27 47.67859 2.28540 33360 ft 459 kts 180°
2026-05-08 19:27 47.64671 2.28744 33666 ft 458 kts 180°
2026-05-08 19:28 47.61494 2.28942 33964 ft 457 kts 180°
2026-05-08 19:28 47.58325 2.29141 34238 ft 453 kts 180°
2026-05-08 19:28 47.55176 2.29351 34504 ft 452 kts 180°
2026-05-08 19:28 47.52059 2.29556 34839 ft 440 kts 180°
2026-05-08 19:29 47.49006 2.29760 34990 ft 442 kts 180°
2026-05-08 19:29 47.42800 2.30171 35011 ft 449 kts 180°
2026-05-08 19:30 47.36558 2.30580 35006 ft 449 kts 180°
2026-05-08 19:30 47.30332 2.30956 35004 ft 446 kts 180°
2026-05-08 19:31 47.24126 2.31315 34999 ft 446 kts 180°
2026-05-08 19:31 47.17920 2.31688 35004 ft 447 kts 180°
2026-05-08 19:32 47.11717 2.32068 35001 ft 446 kts 179°
2026-05-08 19:32 47.05525 2.32446 35008 ft 445 kts 179°
2026-05-08 19:33 46.99342 2.32826 35007 ft 444 kts 179°
2026-05-08 19:33 46.93171 2.33198 35002 ft 444 kts 179°
2026-05-08 19:34 46.87011 2.33566 35013 ft 442 kts 180°
2026-05-08 19:34 46.80950 2.32576 35011 ft 438 kts 196°
2026-05-08 19:35 46.75064 2.30288 35003 ft 437 kts 196°
2026-05-08 19:35 46.69181 2.28027 34998 ft 437 kts 195°
2026-05-08 19:36 46.63342 2.25791 34992 ft 437 kts 195°
2026-05-08 19:36 46.57465 2.23545 34989 ft 437 kts 195°
2026-05-08 19:37 46.51590 2.21308 34986 ft 436 kts 195°
2026-05-08 19:37 46.45719 2.19067 34991 ft 436 kts 195°
2026-05-08 19:38 46.39847 2.16838 34995 ft 436 kts 195°
2026-05-08 19:38 46.33982 2.14614 34996 ft 436 kts 194°
2026-05-08 19:39 46.28118 2.12389 34994 ft 436 kts 195°
2026-05-08 19:39 46.22254 2.10181 34992 ft 435 kts 194°
2026-05-08 19:40 46.16325 2.08446 34990 ft 436 kts 188°
2026-05-08 19:40 46.10309 2.07332 34994 ft 436 kts 187°
2026-05-08 19:41 46.04284 2.06216 34996 ft 437 kts 187°
2026-05-08 19:41 45.98253 2.05098 35000 ft 437 kts 187°
2026-05-08 19:42 45.92221 2.03983 35006 ft 437 kts 187°
2026-05-08 19:42 45.86189 2.02881 35012 ft 437 kts 187°
2026-05-08 19:43 45.80158 2.01778 35022 ft 437 kts 187°
2026-05-08 19:43 45.74129 2.00676 35026 ft 436 kts 187°
2026-05-08 19:44 45.68115 1.99577 35028 ft 435 kts 187°
2026-05-08 19:44 45.62106 1.98478 35033 ft 435 kts 187°
2026-05-08 19:45 45.56106 1.97380 35031 ft 434 kts 187°
2026-05-08 19:45 45.50111 1.96296 35029 ft 434 kts 186°
2026-05-08 19:46 45.44124 1.95211 35025 ft 433 kts 186°
2026-05-08 19:46 45.35198 1.93606 35021 ft 433 kts 186°
2026-05-08 19:47 45.29229 1.92532 35039 ft 432 kts 186°
2026-05-08 19:47 45.23270 1.91447 35036 ft 431 kts 186°
2026-05-08 19:48 45.17317 1.90379 35039 ft 431 kts 186°
2026-05-08 19:48 45.11384 1.89326 35038 ft 429 kts 186°
2026-05-08 19:49 45.05465 1.88266 35032 ft 428 kts 186°
2026-05-08 19:49 44.99556 1.87207 35028 ft 427 kts 186°
2026-05-08 19:50 44.93662 1.86158 35025 ft 427 kts 186°
2026-05-08 19:50 44.90717 1.85635 34815 ft 426 kts 186°
2026-05-08 19:50 44.87780 1.85116 34438 ft 424 kts 186°
2026-05-08 19:51 44.84849 1.84597 33491 ft 425 kts 185°
2026-05-08 19:51 44.81904 1.84077 32472 ft 427 kts 185°
2026-05-08 19:51 44.78954 1.83556 31472 ft 429 kts 185°
2026-05-08 19:51 44.75987 1.83035 30451 ft 431 kts 185°
2026-05-08 19:52 44.72987 1.82508 29226 ft 437 kts 185°
2026-05-08 19:52 44.69964 1.81976 28037 ft 439 kts 186°
2026-05-08 19:52 44.66925 1.81442 26837 ft 441 kts 186°
2026-05-08 19:52 44.63873 1.80907 25661 ft 443 kts 186°
2026-05-08 19:53 44.60806 1.80369 24519 ft 445 kts 187°
2026-05-08 19:53 44.57736 1.79830 23395 ft 444 kts 187°
2026-05-08 19:53 44.54670 1.79289 22111 ft 444 kts 187°
2026-05-08 19:53 44.51612 1.78748 21122 ft 440 kts 187°
2026-05-08 19:54 44.48598 1.78216 20265 ft 433 kts 187°
2026-05-08 19:54 44.45635 1.77696 19407 ft 427 kts 188°
2026-05-08 19:54 44.42706 1.77182 18575 ft 422 kts 188°
2026-05-08 19:54 44.39808 1.76677 17693 ft 417 kts 188°
2026-05-08 19:55 44.36985 1.76184 16924 ft 411 kts 188°
2026-05-08 19:55 44.34124 1.75689 16160 ft 406 kts 187°
2026-05-08 19:55 44.31359 1.75035 15419 ft 401 kts 194°
2026-05-08 19:55 44.28745 1.73758 14677 ft 397 kts 204°
2026-05-08 19:56 44.26323 1.71859 13630 ft 402 kts 213°
2026-05-08 19:56 44.24024 1.69619 12866 ft 399 kts 214°
2026-05-08 19:56 44.21806 1.67462 12716 ft 379 kts 213°
2026-05-08 19:56 44.19690 1.65418 12333 ft 365 kts 214°
2026-05-08 19:57 44.17616 1.63398 11913 ft 357 kts 214°
2026-05-08 19:57 44.15657 1.61486 11761 ft 329 kts 214°
2026-05-08 19:57 44.13864 1.59733 11633 ft 302 kts 214°
2026-05-08 19:57 44.12214 1.58116 11430 ft 281 kts 214°
2026-05-08 19:58 44.10648 1.56583 11156 ft 277 kts 214°
2026-05-08 19:58 44.09061 1.55031 10839 ft 274 kts 214°
2026-05-08 19:58 44.07529 1.53533 10544 ft 264 kts 214°
2026-05-08 19:58 44.06041 1.52077 10045 ft 260 kts 214°
2026-05-08 19:59 44.04576 1.50637 9477 ft 256 kts 215°
2026-05-08 19:59 44.03325 1.48919 8993 ft 258 kts 230°
2026-05-08 19:59 44.02219 1.46919 8635 ft 256 kts 232°
2026-05-08 19:59 44.01166 1.44966 8248 ft 256 kts 232°
2026-05-08 20:00 44.00101 1.42995 7977 ft 254 kts 232°
2026-05-08 20:00 43.99036 1.41027 7973 ft 256 kts 232°
2026-05-08 20:00 43.97965 1.39051 7979 ft 256 kts 232°
2026-05-08 20:00 43.96893 1.37072 7977 ft 256 kts 232°
2026-05-08 20:01 43.95820 1.35092 7976 ft 256 kts 232°
2026-05-08 20:01 43.94753 1.33126 7702 ft 254 kts 232°
2026-05-08 20:01 43.93692 1.31174 7340 ft 253 kts 232°
2026-05-08 20:01 43.92630 1.29225 6973 ft 253 kts 232°
2026-05-08 20:02 43.91572 1.27288 6636 ft 251 kts 232°
2026-05-08 20:02 43.90550 1.25423 6502 ft 233 kts 232°
2026-05-08 20:02 43.89601 1.23688 6275 ft 221 kts 232°
2026-05-08 20:02 43.88538 1.22203 5846 ft 216 kts 207°
2026-05-08 20:03 43.87146 1.21503 5509 ft 209 kts 194°
2026-05-08 20:03 43.85755 1.21034 5169 ft 204 kts 192°
2026-05-08 20:03 43.84372 1.20598 4767 ft 203 kts 192°
2026-05-08 20:03 43.82994 1.20160 4362 ft 202 kts 192°
2026-05-08 20:04 43.81634 1.19711 4008 ft 201 kts 192°
2026-05-08 20:04 43.80279 1.19289 3793 ft 198 kts 183°
2026-05-08 20:04 43.79009 1.19768 3551 ft 191 kts 143°
2026-05-08 20:04 43.77959 1.20909 3266 ft 192 kts 143°
2026-05-08 20:05 43.76893 1.22020 3073 ft 190 kts 143°
2026-05-08 20:05 43.75847 1.23112 3000 ft 183 kts 142°
2026-05-08 20:05 43.74878 1.24125 3000 ft 169 kts 142°
2026-05-08 20:05 43.73976 1.25069 2940 ft 155 kts 142°
2026-05-08 20:06 43.73149 1.25934 2773 ft 144 kts 142°
2026-05-08 20:06 43.72624 1.26482 2665 ft 141 kts 142°
2026-05-08 20:06 43.71852 1.27290 2496 ft 138 kts 142°
2026-05-08 20:06 43.70847 1.28340 2258 ft 136 kts 142°
2026-05-08 20:07 43.70097 1.29124 2084 ft 134 kts 141°
2026-05-08 20:07 43.69352 1.29902 1932 ft 134 kts 141°
2026-05-08 20:07 43.68849 1.30429 1791 ft 134 kts 140°
2026-05-08 20:07 43.67869 1.31452 1541 ft 133 kts 140°
2026-05-08 20:08 43.67366 1.31975 1414 ft 134 kts 141°
2026-05-08 20:08 43.66618 1.32756 1211 ft 136 kts 140°
2026-05-08 20:08 43.65855 1.33550 1045 ft 138 kts 143°
2026-05-08 20:08 43.65087 1.34354 850 ft 138 kts 140°
2026-05-08 20:09 43.64335 1.35145 701 ft 138 kts 142°
2026-05-08 20:09 43.63571 1.35935 519 ft 136 kts 142°
2026-05-08 20:09 43.62911 1.36631 492 ft 100 kts 144°
2026-05-08 20:09 43.62479 1.37090 490 ft 60 kts 137°
2026-05-08 20:10 43.62267 1.37303 487 ft 30 kts 146°
2026-05-08 20:10 43.62146 1.37431 495 ft 17 kts 145°
2026-05-08 20:10 43.62111 1.37468 492 ft 4 kts 139°
2026-05-08 20:10 43.62099 1.37551 486 ft 15 kts 71°
2026-05-08 20:11 43.62162 1.37660 491 ft 14 kts 31°
2026-05-08 20:11 43.62243 1.37628 487 ft 12 kts 323°
2026-05-08 20:11 43.62308 1.37560 491 ft 11 kts 323°
2026-05-08 20:11 43.62370 1.37497 494 ft 11 kts 323°
2026-05-08 20:12 43.62428 1.37435 494 ft 11 kts 321°
2026-05-08 20:12 43.62504 1.37354 487 ft 14 kts 322°
2026-05-08 20:12 43.62577 1.37363 491 ft 11 kts 52°
2026-05-08 20:12 43.62622 1.37449 494 ft 11 kts 53°
2026-05-08 20:13 43.62680 1.37477 491 ft 9 kts 342°
2026-05-08 20:13 43.62737 1.37422 491 ft 14 kts 322°
2026-05-08 20:13 43.62827 1.37329 495 ft 16 kts 322°
2026-05-08 20:13 43.62913 1.37241 491 ft 15 kts 324°
2026-05-08 20:14 43.62993 1.37160 492 ft 14 kts 319°
2026-05-08 20:14 43.63011 1.37136 492 ft 0 kts 314°
2026-05-08 20:14 43.62989 1.37164 486 ft 0 kts 322°
2026-05-08 20:15 43.62990 1.37164 486 ft 0 kts 328°
2026-05-08 20:15 43.62992 1.37166 490 ft 2 kts 358°
2026-05-08 20:15 43.63005 1.37189 495 ft 7 kts 50°
2026-05-08 20:15 43.63013 1.37205 493 ft 1 kts 57°
2026-05-08 20:16 43.63017 1.37212 488 ft 4 kts 52°
2026-05-08 20:16 43.63031 1.37237 488 ft 0 kts 52°
2026-05-08 20:16 43.63037 1.37246 495 ft 2 kts 53°
2026-05-08 20:16 43.63042 1.37256 495 ft 0 kts 53°
2026-05-08 20:17 43.63043 1.37257 495 ft 0 kts 53°